Weather History for KMCW - October, 2012

Change the Weather History Date:

Tuesday, October 16, 2012

  Actual Average Record
Temperature  
Mean Temperature 57 °F 48 °F  
Max Temperature 69 °F 60 °F 85 °F (1938)
Min Temperature 45 °F 37 °F 22 °F (1943)
Degree Days  
Heating Degree Days 8 17  
Month to date heating degree days 276 226  
Since 1 July heating degree days 468 439  
Cooling Degree Days 0 0  
Month to date cooling degree days 0 2  
Year to date cooling degree days 899 612  
Growing Degree Days 6 (Base 50)    
Moisture  
Dew Point 44 °F    
Average Humidity 69    
Maximum Humidity 86    
Minimum Humidity 51    
Precipitation  
Precipitation 0.00 in 0.07 in 2.09 in (1928)
Month to date precipitation 0.70 1.38  
Year to date precipitation 16.86 31.01  
Snow  
Snow 0.00 in 0.00 in 5.50 in (1937)
Month to date snowfall 0.0 0.1  
Since 1 July snowfall 0.0 0.1  
Since 1 September snowfall 0.0 0.1  
Snow Depth 0.00 in    
Sea Level Pressure  
Sea Level Pressure 29.55 in    
Wind  
Wind Speed 8 mph (South)    
Max Wind Speed 16 mph    
Max Gust Speed 20 mph    
Visibility 10 miles    
Events      
T = Trace of Precipitation, MM = Missing Value Source: NWS Daily Summary

Daily Weather History Graph

Daily Weather History Graph

Search for Another Location

Airport or City:

Trip Planner

Search our weather history database for the weather conditions in past years. The results will help you decide how hot, cold, wet, or windy it might be!

Date:

Astronomy

Oct. 16, 2012 Rise Set
Actual Time 7:28 AM CDT 6:27 PM CDT
Civil Twilight 7:00 AM CDT 6:56 PM CDT
Nautical Twilight 6:27 AM CDT 7:29 PM CDT
Astronomical Twilight 5:54 AM CDT 8:02 PM CDT
Moon 8:55 AM CDT (10/16) 7:09 PM CDT (10/16)
Length of Visible Light 11h 56m
Length of Day
10h 59m
New Moon, 2% of the Moon is Illuminated
Oct 16
New Moon
Oct 21
First Quarter
Oct 29
Full
Nov 6
Last Quarter
Nov 13
New

Hourly Weather History & Observations

Time (CDT) Temp. Windchill Dew Point Humidity Pressure Visibility Wind Dir Wind Speed Gust Speed Precip Events Conditions
12:53 AM 48.0 °F - 39.9 °F 74% 29.80 in 10.0 mi SSE 11.5 mph - N/A   Clear
1:53 AM 48.0 °F - 39.9 °F 74% 29.78 in 10.0 mi South 6.9 mph - N/A   Clear
2:53 AM 46.9 °F - 41.0 °F 80% 29.75 in 10.0 mi SSE 9.2 mph - N/A   Clear
3:53 AM 46.0 °F 42.5 °F 39.9 °F 79% 29.71 in 10.0 mi SSE 6.9 mph - N/A   Clear
4:53 AM 44.6 °F 40.7 °F 39.2 °F 81% 29.70 in 10.0 mi SSE 6.9 mph - N/A   Clear
5:53 AM 46.9 °F - 41.0 °F 80% 29.66 in 10.0 mi SSE 10.4 mph - N/A   Partly Cloudy
6:53 AM 46.0 °F 39.9 °F 41.0 °F 83% 29.63 in 10.0 mi SSE 13.8 mph - N/A   Clear
7:53 AM 46.9 °F - 41.0 °F 80% 29.61 in 10.0 mi SSE 13.8 mph - N/A   Clear
8:53 AM 50.0 °F - 42.1 °F 74% 29.59 in 10.0 mi SSE 11.5 mph - N/A   Clear
9:53 AM 53.1 °F - 44.1 °F 71% 29.60 in 10.0 mi South 9.2 mph - N/A   Clear
10:53 AM 57.9 °F - 46.0 °F 65% 29.57 in 10.0 mi South 11.5 mph - N/A   Clear
11:53 AM 61.0 °F - 46.9 °F 60% 29.53 in 10.0 mi SE 11.5 mph - N/A   Partly Cloudy
12:53 PM 62.1 °F - 46.9 °F 58% 29.50 in 10.0 mi South 10.4 mph - N/A   Clear
1:53 PM 66.0 °F - 48.0 °F 52% 29.48 in 10.0 mi South 8.1 mph - N/A   Clear
2:53 PM 66.0 °F - 48.0 °F 52% 29.45 in 10.0 mi South 6.9 mph - N/A   Clear
3:53 PM 69.1 °F - 50.0 °F 51% 29.44 in 10.0 mi South 11.5 mph - N/A   Clear
4:53 PM 68.0 °F - 50.0 °F 52% 29.42 in 10.0 mi SW 6.9 mph - N/A   Clear
5:53 PM 64.9 °F - 48.9 °F 56% 29.42 in 10.0 mi SSW 5.8 mph - N/A   Clear
6:53 PM 59.0 °F - 48.0 °F 67% 29.42 in 10.0 mi South 3.5 mph - N/A   Clear
7:53 PM 52.0 °F - 46.0 °F 80% 29.43 in 9.0 mi Calm Calm - N/A   Clear
8:53 PM 52.0 °F - 46.0 °F 80% 29.43 in 9.0 mi South 4.6 mph - N/A   Clear
9:53 PM 48.9 °F - 45.0 °F 86% 29.43 in 7.0 mi Calm Calm - N/A   Clear
10:53 PM 46.9 °F - 43.0 °F 86% 29.42 in 9.0 mi SSW 3.5 mph - N/A   Clear
11:53 PM 48.0 °F - 43.0 °F 83% 29.40 in 10.0 mi SW 4.6 mph - N/A   Clear